This demonstration page uses our WeatherBlox Daily Observations layout. Learn more.

Hourly Observations for December 26, 2016

Temp ( °F °C ) Dew Point ( °F °C ) Humidity (%) Winds ( mph kmh ) Pressure ( in mb ) Visibility ( mi km ) Precip ( " mm )
12:15 am 00:15 Clear 25 -3.7 12 -11 57 57 W 21 33 29.88 1012 10 16.0934 0 0
12:35 am 00:35 Clear 25 -4 13 -10.7 60 60 W 16 26 29.91 1013 10 16.0934 0 0
12:55 am 00:55 Clear 25 -4.1 13 -10.7 60 60 W 16 26 29.91 1013 10 16.0934 0 0
1:15 am 01:15 Clear 24 -4.2 12 -11.1 59 59 W 14 22 29.91 1013 10 16.0934 0 0
1:35 am 01:35 Clear 24 -4.2 12 -11.3 58 58 W 17 28 29.91 1013 10 16.0934 0 0
1:55 am 01:55 Clear 24 -4.2 11 -11.6 57 57 W 18 30 29.91 1013 10 16.0934 0 0
2:15 am 02:15 Clear 24 -4.3 11 -11.5 58 58 W 16 26 29.94 1014 10 16.0934 0 0
2:35 am 02:35 Clear 23 -4.8 12 -11.2 61 61 W 14 22 29.94 1014 10 16.0934 0 0
2:55 am 02:55 Clear 24 -4.7 11 -11.5 59 59 W 15 24 29.94 1014 10 16.0934 0 0
3:15 am 03:15 Clear 23 -4.8 12 -11.3 61 61 W 14 22 29.97 1015 10 16.0934 0 0
3:35 am 03:35 Clear 23 -5 12 -11 63 63 W 13 20 30 1016 10 16.0934 0 0
3:55 am 03:55 Clear 23 -4.9 13 -10.7 64 64 W 12 19 30 1016 10 16.0934 0 0
4:15 am 04:15 Clear 25 -3.7 12 -11.2 56 56 WNW 21 33 30 1016 10 16.0934 0 0
4:35 am 04:35 Clear 26 -3.6 10 -12 53 53 WNW 21 33 30 1016 10 16.0934 0 0
4:55 am 04:55 Clear 25 -4.1 10 -12.1 54 54 WNW 18 30 30.03 1017 10 16.0934 0 0
5:15 am 05:15 Clear 24 -4.3 10 -12.5 53 53 WNW 20 31 30.06 1018 10 16.0934 0 0
5:35 am 05:35 Clear 24 -4.5 10 -12.5 54 54 WNW 18 30 30.06 1018 10 16.0934 0 0
5:55 am 05:55 Clear 24 -4.6 9 -12.6 54 54 WNW 18 30 30.09 1019 10 16.0934 0 0
6:15 am 06:15 Clear 24 -4.7 10 -12.2 56 56 WNW 16 26 30.09 1019 10 16.0934 0 0
6:35 am 06:35 Clear 24 -4.6 11 -11.6 58 58 WNW 14 22 30.09 1019 10 16.0934 0 0
6:55 am 06:55 Clear 23 -4.8 12 -11.2 61 61 WNW 14 22 30.12 1020 10 16.0934 0 0
7:15 am 07:15 Clear 23 -5 12 -11.1 63 63 W 10 17 30.12 1020 10 16.0934 0 0
7:35 am 07:35 Clear 21 -6.1 12 -11.2 68 68 W 10 17 30.15 1021 10 16.0934 0 0
7:55 am 07:55 Clear 22 -5.5 12 -11.1 65 65 W 12 19 30.15 1021 10 16.0934 0 0
8:15 am 08:15 Sunny 21 -6.1 12 -11 69 69 W 9 15 30.15 1021 10 16.0934 0 0
8:35 am 08:35 Sunny 21 -6 13 -10.8 69 69 W 9 15 30.15 1021 10 16.0934 0 0
8:55 am 08:55 Sunny 23 -5.1 13 -10.6 66 66 W 12 19 30.18 1022 10 16.0934 0 0
9:15 am 09:15 Sunny 24 -4.4 14 -10.2 64 64 W 12 19 30.21 1023 10 16.0934 0 0
9:35 am 09:35 Sunny 26 -3.5 14 -9.9 62 62 W 13 20 30.21 1023 10 16.0934 0 0
9:55 am 09:55 Sunny 27 -2.6 15 -9.2 61 61 WNW 12 19 30.18 1022 10 16.0934 0 0
10:15 am 10:15 Sunny 31 -0.8 16 -8.8 55 55 WNW 12 19 30.21 1023 10 16.0934 0 0
10:35 am 10:35 Sunny 32 0.2 16 -9.1 50 50 WNW 17 28 30.21 1023 10 16.0934 0 0
10:55 am 10:55 Sunny 33 0.5 16 -9.1 49 49 WNW 21 33 30.24 1024 10 16.0934 0 0
11:15 am 11:15 Sunny 33 0.8 16 -8.9 49 49 WNW 22 35 30.21 1023 10 16.0934 0 0
11:35 am 11:35 Sunny 35 1.4 17 -8.2 49 49 NW 16 26 30.21 1023 10 16.0934 0 0
11:55 am 11:55 Sunny 35 1.8 17 -8.2 48 48 NW 22 35 30.21 1023 10 16.0934 0 0
12:15 pm 12:15 Sunny 36 2.1 18 -8 48 48 NW 22 35 30.21 1023 10 16.0934 0 0
12:35 pm 12:35 Sunny 36 2.3 17 -8.3 46 46 NW 23 37 30.18 1022 10 16.0934 0 0
12:55 pm 12:55 Sunny 37 2.7 18 -7.7 47 47 NW 23 37 30.18 1022 10 16.0934 0 0
1:15 pm 13:15 Sunny 38 3.2 19 -7.3 46 46 NW 21 33 30.18 1022 10 16.0934 0 0
1:35 pm 13:35 Sunny 39 3.7 19 -7 46 46 NW 23 37 30.15 1021 10 16.0934 0 0
1:55 pm 13:55 Sunny 39 4 19 -7 45 45 NW 16 26 30.15 1021 10 16.0934 0 0
2:15 pm 14:15 Sunny 39 4.1 19 -7.2 44 44 NW 20 31 30.15 1021 10 16.0934 0 0
2:35 pm 14:35 Sunny 40 4.5 19 -7.2 43 43 WNW 17 28 30.15 1021 10 16.0934 0 0
2:55 pm 14:55 Sunny 41 4.8 19 -7.1 42 42 WNW 14 22 30.18 1022 10 16.0934 0 0
3:15 pm 15:15 Sunny 41 5 20 -6.9 42 42 WNW 10 17 30.18 1022 10 16.0934 0 0
3:35 pm 15:35 Sunny 41 5.2 20 -6.9 42 42 NW 12 19 30.18 1022 10 16.0934 0 0
3:55 pm 15:55 Sunny 41 5.1 19 -7.4 40 40 NW 15 24 30.18 1022 10 16.0934 0 0
4:15 pm 16:15 Sunny 41 4.8 20 -6.7 43 43 NW 12 19 30.18 1022 10 16.0934 0 0
4:35 pm 16:35 Sunny 40 4.4 21 -6.3 46 46 WNW 9 15 30.21 1023 10 16.0934 0 0
4:55 pm 16:55 Sunny 38 3.5 21 -6.1 50 50 WNW 5 7 30.24 1024 10 16.0934 0 0
5:15 pm 17:15 Sunny 35 1.9 21 -6 56 56 Calm 30.27 1025 10 16.0934 0 0
5:35 pm 17:35 Clear 35 1.6 22 -5.7 59 59 WNW 3 6 30.27 1025 10 16.0934 0 0
5:55 pm 17:55 Clear 33 0.4 22 -5.6 64 64 Calm 30.3 1026 10 16.0934 0 0
6:15 pm 18:15 Clear 32 0.1 21 -5.9 64 64 WNW 8 13 30.3 1026 10 16.0934 0 0
6:35 pm 18:35 Clear 33 0.8 21 -6.2 60 60 WNW 5 7 30.3 1026 10 16.0934 0 0
6:55 pm 18:55 Clear 32 0 21 -6.3 63 63 Calm 30.3 1026 10 16.0934 0 0
7:15 pm 19:15 Clear 32 -0.1 20 -6.6 62 62 WNW 3 6 30.33 1027 10 16.0934 0 0
7:35 pm 19:35 Clear 31 -0.3 20 -6.6 63 63 WNW 3 6 30.33 1027 10 16.0934 0 0
7:55 pm 19:55 Clear 30 -1.1 19 -7.1 64 64 WSW 5 7 30.33 1027 10 16.0934 0 0
8:15 pm 20:15 Clear 28 -2 19 -7.1 68 68 W 7 11 30.36 1028 10 16.0934 0 0
8:35 pm 20:35 Clear 29 -1.6 19 -7.1 66 66 W 6 9 30.36 1028 10 16.0934 0 0
8:55 pm 20:55 Clear 29 -1.9 18 -7.6 65 65 W 7 11 30.36 1028 10 16.0934 0 0
9:15 pm 21:15 Clear 28 -2 18 -7.7 65 65 W 6 9 30.36 1028 10 16.0934 0 0
9:35 pm 21:35 Clear 28 -2.2 18 -8 65 65 W 7 11 30.36 1028 10 16.0934 0 0
9:55 pm 21:55 Clear 29 -1.4 18 -7.6 63 63 WSW 7 11 30.39 1029 10 16.0934 0 0
10:15 pm 22:15 Clear 28 -2.1 19 -7.5 67 67 SW 6 9 30.39 1029 10 16.0934 0 0
10:35 pm 22:35 Clear 28 -2.5 18 -7.7 68 68 SW 6 9 30.39 1029 10 16.0934 0 0
10:55 pm 22:55 Clear 28 -2.3 18 -7.6 67 67 WSW 6 9 30.39 1029 10 16.0934 0 0
11:15 pm 23:15 Clear 29 -1.7 18 -7.7 64 64 W 8 13 30.39 1029 10 16.0934 0 0
11:35 pm 23:35 Clear 28 -2 18 -8 64 64 WSW 7 11 30.39 1029 10 16.0934 0 0
11:55 pm 23:55 Clear 28 -2 18 -8 64 64 WSW 6 9 30.39 1029 10 16.0934 0 0

Powered by AerisWeather